| time (UTC) | temp F | wind direction | speed knots | gust knots | rain 1hr in | rain 24hr in | rain mn in | humidity % | barometer mb |
| 20260504045026 | 43 | 259 | 1.7 | 0.0 | 0.00 | 0.00 | 0.00 | 42 | 1016.4 |
| 20260504044039 | 43 | 259 | 2.6 | 0.0 | 0.00 | 0.00 | 0.00 | 42 | 1016.6 |
| 20260504042026 | 42 | 259 | 0.9 | 0.0 | 0.00 | 0.00 | 0.00 | 43 | 1016.4 |
| 20260504041026 | 42 | 259 | 0.9 | 0.0 | 0.00 | 0.00 | 0.00 | 43 | 1016.6 |
| 20260504035039 | 43 | 259 | 0.0 | 0.0 | 0.00 | 0.00 | 0.00 | 42 | 1016.6 |
| 20260504034031 | 44 | 259 | 0.0 | 0.0 | 0.00 | 0.00 | 0.00 | 41 | 1016.6 |
| 20260504033024 | 45 | 259 | 0.9 | 0.0 | 0.00 | 0.00 | 0.00 | 41 | 1016.5 |
| 20260504032037 | 45 | 259 | 0.9 | 0.0 | 0.00 | 0.00 | 0.00 | 42 | 1016.6 |
| 20260504031030 | 45 | 259 | 0.0 | 0.0 | 0.00 | 0.00 | 0.00 | 45 | 1017.2 |
| 20260504030022 | 45 | 259 | 0.0 | 0.0 | 0.00 | 0.00 | 0.00 | 46 | 1017.3 |
| 20260504025035 | 46 | 259 | 0.0 | 0.0 | 0.00 | 0.00 | 0.00 | 46 | 1017.0 |
| 20260504024028 | 47 | 259 | 0.0 | 0.0 | 0.00 | 0.00 | 0.00 | 45 | 1017.0 |
| 20260504023022 | 47 | 259 | 0.0 | 0.0 | 0.00 | 0.00 | 0.00 | 44 | 1016.9 |
| 20260504022020 | 48 | 259 | 0.0 | 0.0 | 0.00 | 0.00 | 0.00 | 42 | 1016.8 |
| 20260504021036 | 49 | 259 | 0.0 | 0.0 | 0.00 | 0.00 | 0.00 | 41 | 1016.7 |
| 20260504020030 | 50 | 259 | 0.0 | 0.0 | 0.00 | 0.00 | 0.00 | 40 | 1016.7 |
| 20260504015040 | 51 | 259 | 0.0 | 0.0 | 0.00 | 0.00 | 0.00 | 39 | 1016.5 |
| 20260504014031 | 51 | 259 | 0.0 | 0.0 | 0.00 | 0.00 | 0.00 | 38 | 1016.6 |
| 20260504013026 | 52 | 259 | 0.0 | 0.0 | 0.00 | 0.00 | 0.00 | 37 | 1016.4 |
| 20260504012040 | 53 | 259 | 0.0 | 0.0 | 0.00 | 0.00 | 0.00 | 34 | 1016.5 |
| 20260504011031 | 53 | 259 | 0.0 | 0.0 | 0.00 | 0.00 | 0.00 | 33 | 1016.5 |
| 20260504010024 | 54 | 259 | 0.0 | 0.0 | 0.00 | 0.00 | 0.00 | 33 | 1016.5 |
| 20260504005024 | 54 | 259 | 0.0 | 0.0 | 0.00 | 0.00 | 0.00 | 33 | 1016.4 |
| 20260504004020 | 54 | 259 | 0.0 | 0.0 | 0.00 | 0.00 | 0.00 | 32 | 1016.7 |
| 20260504003033 | 55 | 246 | 0.0 | 0.0 | 0.00 | 0.00 | 0.00 | 30 | 1016.6 |
| 20260504001026 | 55 | 284 | 0.0 | 0.0 | 0.00 | 0.00 | 0.00 | 33 | 1016.7 |
| 20260504000023 | 55 | 277 | 0.0 | 0.0 | 0.00 | 0.00 | 0.00 | 31 | 1016.8 |
| 20260503235037 | 55 | 310 | 0.0 | 0.0 | 0.00 | 0.00 | 0.00 | 33 | 1016.9 |
| 20260503233023 | 55 | 188 | 0.0 | 0.0 | 0.00 | 0.00 | 0.00 | 33 | 1017.0 |
| 20260503232033 | 55 | 329 | 0.0 | 0.0 | 0.00 | 0.00 | 0.00 | 35 | 1017.2 |
| 20260503231028 | 54 | 306 | 0.0 | 0.0 | 0.00 | 0.00 | 0.00 | 35 | 1017.1 |
| 20260503230029 | 54 | 294 | 0.0 | 0.0 | 0.00 | 0.00 | 0.00 | 34 | 1017.2 |
| 20260503225023 | 53 | 301 | 0.0 | 0.0 | 0.00 | 0.00 | 0.00 | 36 | 1017.2 |
| 20260503224038 | 52 | 295 | 1.7 | 0.0 | 0.00 | 0.00 | 0.00 | 40 | 1017.4 |
| 20260503223029 | 50 | 360 | 1.7 | 0.0 | 0.00 | 0.00 | 0.00 | 46 | 1018.0 |
| 20260503221020 | 56 | 264 | 0.9 | 0.0 | 0.00 | 0.00 | 0.00 | 34 | 1017.7 |
| 20260503220037 | 56 | 281 | 1.7 | 0.0 | 0.00 | 0.00 | 0.00 | 32 | 1017.6 |
| 20260503215028 | 56 | 265 | 0.9 | 0.0 | 0.00 | 0.00 | 0.00 | 33 | 1017.9 |
| 20260503213038 | 55 | 214 | 1.7 | 0.0 | 0.00 | 0.00 | 0.00 | 35 | 1018.0 |
| 20260503212033 | 56 | 13 | 0.9 | 0.0 | 0.00 | 0.00 | 0.00 | 31 | 1017.8 |
| 20260503211028 | 57 | 355 | 0.0 | 0.0 | 0.00 | 0.00 | 0.00 | 31 | 1017.9 |
| 20260503210020 | 57 | 264 | 0.0 | 0.0 | 0.00 | 0.00 | 0.00 | 30 | 1018.2 |
| 20260503205033 | 57 | 291 | 1.7 | 0.0 | 0.00 | 0.00 | 0.00 | 28 | 1018.3 |
| 20260503203028 | 59 | 256 | 0.9 | 0.0 | 0.00 | 0.00 | 0.00 | 30 | 1018.5 |
| 20260503202022 | 58 | 340 | 0.9 | 0.0 | 0.00 | 0.00 | 0.00 | 31 | 1018.6 |
| 20260503201038 | 58 | 249 | 0.9 | 0.0 | 0.00 | 0.00 | 0.00 | 30 | 1018.9 |
| 20260503200030 | 57 | 227 | 0.0 | 0.0 | 0.00 | 0.00 | 0.00 | 30 | 1018.5 |
| 20260503195026 | 56 | 289 | 0.9 | 0.0 | 0.00 | 0.00 | 0.00 | 31 | 1018.6 |
| 20260503194022 | 57 | 257 | 0.9 | 0.0 | 0.00 | 0.00 | 0.00 | 32 | 1018.6 |
| 20260503193036 | 57 | 321 | 0.9 | 0.0 | 0.00 | 0.00 | 0.00 | 31 | 1018.7 |
| 20260503192030 | 54 | 225 | 0.9 | 0.0 | 0.00 | 0.00 | 0.00 | 34 | 1018.8 |
| 20260503191022 | 55 | 331 | 0.9 | 0.0 | 0.00 | 0.00 | 0.00 | 33 | 1019.2 |
| 20260503185034 | 55 | 233 | 0.0 | 0.0 | 0.00 | 0.00 | 0.00 | 35 | 1019.6 |
| 20260503184025 | 55 | 60 | 0.0 | 0.0 | 0.00 | 0.00 | 0.00 | 33 | 1019.3 |
| 20260503183022 | 55 | 196 | 1.7 | 0.0 | 0.00 | 0.00 | 0.00 | 33 | 1019.6 |
| 20260503182036 | 56 | 280 | 0.9 | 0.0 | 0.00 | 0.00 | 0.00 | 31 | 1020.0 |
| 20260503181034 | 56 | 260 | 0.9 | 0.0 | 0.00 | 0.00 | 0.00 | 30 | 1019.9 |
| 20260503180030 | 57 | 242 | 2.6 | 0.0 | 0.00 | 0.00 | 0.00 | 33 | 1019.8 |
| 20260503175022 | 57 | 289 | 1.7 | 0.0 | 0.00 | 0.00 | 0.00 | 31 | 1020.0 |
| 20260503174040 | 56 | 270 | 0.9 | 0.0 | 0.00 | 0.00 | 0.00 | 31 | 1020.4 |
| 20260503173031 | 56 | 209 | 0.9 | 0.0 | 0.00 | 0.00 | 0.00 | 29 | 1020.5 |
| 20260503171022 | 56 | 344 | 0.9 | 0.0 | 0.00 | 0.00 | 0.00 | 32 | 1020.8 |
| 20260503131025 | 41 | 173 | 0.0 | 0.0 | 0.00 | 0.00 | 0.00 | 57 | 1021.7 |